Time,TemperatureF,DewpointF,PressureIn,WindDirection,WindDirectionDegrees,WindSpeedMPH,WindSpeedGustMPH,Humidity,HourlyPrecipIn,Conditions,Clouds,dailyrainin,SoftwareType,DateUTC
2013-07-16 00:00:00,66.9,46.6,29.90,ESE,109,2.0,4.0,48,0.00,,---,0.00,VWS V14.01,2013-07-16 07:00:00,
2013-07-16 00:01:00,67.0,46.7,29.90,East,90,3.0,4.0,48,0.00,,---,0.00,VWS V14.01,2013-07-16 07:01:00,
2013-07-16 00:05:00,66.8,47.0,29.90,East,100,2.0,3.0,49,0.00,,---,0.00,VWS V14.01,2013-07-16 07:05:00,
2013-07-16 00:06:00,66.8,47.0,29.90,ESE,108,2.0,3.0,49,0.00,,---,0.00,VWS V14.01,2013-07-16 07:06:00,
2013-07-16 00:10:00,66.6,46.9,29.90,East,100,1.0,5.0,49,0.00,,---,0.00,VWS V14.01,2013-07-16 07:10:00,
2013-07-16 00:11:00,66.6,46.9,29.90,East,100,2.0,5.0,49,0.00,,---,0.00,VWS V14.01,2013-07-16 07:11:00,
2013-07-16 00:15:00,66.5,46.8,29.90,East,91,2.0,3.0,49,0.00,,---,0.00,VWS V14.01,2013-07-16 07:15:00,
2013-07-16 00:16:00,66.5,46.8,29.90,East,98,2.0,3.0,49,0.00,,---,0.00,VWS V14.01,2013-07-16 07:16:00,
2013-07-16 00:20:00,66.2,47.0,29.90,ESE,112,2.0,3.0,50,0.00,,---,0.00,VWS V14.01,2013-07-16 07:20:00,
2013-07-16 00:21:00,66.3,47.1,29.90,East,98,1.0,3.0,50,0.00,,---,0.00,VWS V14.01,2013-07-16 07:21:00,
2013-07-16 00:25:00,66.0,46.8,29.90,East,96,2.0,3.0,50,0.00,,---,0.00,VWS V14.01,2013-07-16 07:25:00,
2013-07-16 00:26:00,66.0,46.8,29.90,East,96,0.0,3.0,50,0.00,,---,0.00,VWS V14.01,2013-07-16 07:26:00,
2013-07-16 00:30:00,65.7,47.1,29.90,East,97,2.0,3.0,51,0.00,,---,0.00,VWS V14.01,2013-07-16 07:30:00,
2013-07-16 00:31:00,65.7,47.1,29.90,ESE,109,2.0,3.0,51,0.00,,---,0.00,VWS V14.01,2013-07-16 07:31:00,
2013-07-16 00:35:00,65.5,46.9,29.89,East,93,1.0,4.0,51,0.00,,---,0.00,VWS V14.01,2013-07-16 07:35:00,
2013-07-16 00:36:00,65.5,46.9,29.89,East,88,1.0,4.0,51,0.00,,---,0.00,VWS V14.01,2013-07-16 07:36:00,
2013-07-16 00:40:00,65.3,46.7,29.89,East,79,2.0,4.0,51,0.00,,---,0.00,VWS V14.01,2013-07-16 07:40:00,
2013-07-16 00:41:00,65.3,46.7,29.89,East,89,2.0,4.0,51,0.00,,---,0.00,VWS V14.01,2013-07-16 07:41:00,
2013-07-16 00:45:00,65.2,47.2,29.89,ENE,67,4.0,5.0,52,0.00,,---,0.00,VWS V14.01,2013-07-16 07:45:00,
2013-07-16 00:46:00,65.2,47.2,29.89,East,94,2.0,4.0,52,0.00,,---,0.00,VWS V14.01,2013-07-16 07:46:00,
2013-07-16 00:50:00,65.0,47.0,29.89,East,94,2.0,4.0,52,0.00,,---,0.00,VWS V14.01,2013-07-16 07:50:00,
2013-07-16 00:51:00,65.0,47.0,29.89,East,94,2.0,4.0,52,0.00,,---,0.00,VWS V14.01,2013-07-16 07:51:00,
2013-07-16 00:55:00,64.9,46.9,29.89,ESE,110,3.0,4.0,52,0.00,,---,0.00,VWS V14.01,2013-07-16 07:55:00,
2013-07-16 00:56:00,64.9,46.9,29.89,East,91,3.0,4.0,52,0.00,,---,0.00,VWS V14.01,2013-07-16 07:56:00,
2013-07-16 01:00:00,64.8,46.8,29.89,East,97,3.0,5.0,52,0.00,,---,0.00,VWS V14.01,2013-07-16 08:00:00,
2013-07-16 01:01:00,64.8,46.8,29.89,ESE,109,3.0,5.0,52,0.00,,---,0.00,VWS V14.01,2013-07-16 08:01:00,
2013-07-16 01:05:00,64.8,47.3,29.89,East,91,1.0,5.0,53,0.00,,---,0.00,VWS V14.01,2013-07-16 08:05:00,
2013-07-16 01:06:00,64.8,47.3,29.89,East,95,2.0,5.0,53,0.00,,---,0.00,VWS V14.01,2013-07-16 08:06:00,
2013-07-16 01:10:00,64.8,47.3,29.89,East,90,3.0,4.0,53,0.00,,---,0.00,VWS V14.01,2013-07-16 08:10:00,
2013-07-16 01:11:00,64.8,47.3,29.89,East,97,2.0,3.0,53,0.00,,---,0.00,VWS V14.01,2013-07-16 08:11:00,
2013-07-16 01:15:00,64.9,47.4,29.89,ESE,117,1.0,4.0,53,0.00,,---,0.00,VWS V14.01,2013-07-16 08:15:00,
2013-07-16 01:16:00,64.9,47.4,29.89,East,92,2.0,4.0,53,0.00,,---,0.00,VWS V14.01,2013-07-16 08:16:00,
2013-07-16 01:20:00,64.9,47.4,29.89,East,94,2.0,4.0,53,0.00,,---,0.00,VWS V14.01,2013-07-16 08:20:00,
2013-07-16 01:21:00,64.9,47.4,29.89,East,96,1.0,4.0,53,0.00,,---,0.00,VWS V14.01,2013-07-16 08:21:00,
2013-07-16 01:25:00,64.9,46.9,29.89,ESE,106,4.0,4.0,52,0.00,,---,0.00,VWS V14.01,2013-07-16 08:25:00,
2013-07-16 01:26:00,64.8,46.8,29.89,East,94,3.0,4.0,52,0.00,,---,0.00,VWS V14.01,2013-07-16 08:26:00,
2013-07-16 01:30:00,64.9,47.4,29.89,ESE,105,3.0,4.0,53,0.00,,---,0.00,VWS V14.01,2013-07-16 08:30:00,
2013-07-16 01:31:00,64.9,47.4,29.89,East,100,3.0,4.0,53,0.00,,---,0.00,VWS V14.01,2013-07-16 08:31:00,
2013-07-16 01:35:00,64.8,48.3,29.89,East,93,3.0,4.0,55,0.00,,---,0.00,VWS V14.01,2013-07-16 08:35:00,
2013-07-16 01:36:00,64.9,48.4,29.89,East,98,4.0,4.0,55,0.00,,---,0.00,VWS V14.01,2013-07-16 08:36:00,
2013-07-16 01:40:00,64.8,47.8,29.89,ESE,112,1.0,4.0,54,0.00,,---,0.00,VWS V14.01,2013-07-16 08:40:00,
2013-07-16 01:41:00,64.8,47.8,29.89,East,89,2.0,4.0,54,0.00,,---,0.00,VWS V14.01,2013-07-16 08:41:00,
2013-07-16 01:45:00,64.8,47.8,29.89,East,90,3.0,4.0,54,0.00,,---,0.00,VWS V14.01,2013-07-16 08:45:00,
2013-07-16 01:46:00,64.8,47.8,29.89,East,86,2.0,4.0,54,0.00,,---,0.00,VWS V14.01,2013-07-16 08:46:00,
2013-07-16 01:50:00,64.7,48.2,29.89,East,89,2.0,5.0,55,0.00,,---,0.00,VWS V14.01,2013-07-16 08:50:00,
2013-07-16 01:52:00,64.7,48.2,29.89,East,96,3.0,3.0,55,0.00,,---,0.00,VWS V14.01,2013-07-16 08:52:00,
2013-07-16 01:55:00,64.6,48.6,29.89,East,80,4.0,5.0,56,0.00,,---,0.00,VWS V14.01,2013-07-16 08:55:00,
2013-07-16 01:57:00,64.5,48.5,29.89,East,90,4.0,4.0,56,0.00,,---,0.00,VWS V14.01,2013-07-16 08:57:00,
2013-07-16 02:00:00,64.4,48.4,29.89,East,97,3.0,4.0,56,0.00,,---,0.00,VWS V14.01,2013-07-16 09:00:00,
2013-07-16 02:02:00,64.4,48.4,29.89,East,86,3.0,3.0,56,0.00,,---,0.00,VWS V14.01,2013-07-16 09:02:00,
2013-07-16 02:05:00,64.3,47.8,29.89,East,96,2.0,3.0,55,0.00,,---,0.00,VWS V14.01,2013-07-16 09:05:00,
2013-07-16 02:07:00,64.3,47.8,29.89,East,95,1.0,2.0,55,0.00,,---,0.00,VWS V14.01,2013-07-16 09:07:00,
2013-07-16 02:10:00,64.3,47.3,29.89,East,98,2.0,3.0,54,0.00,,---,0.00,VWS V14.01,2013-07-16 09:10:00,
2013-07-16 02:12:00,64.3,47.3,29.89,East,96,2.0,2.0,54,0.00,,---,0.00,VWS V14.01,2013-07-16 09:12:00,
2013-07-16 02:15:00,64.3,47.3,29.89,East,96,2.0,3.0,54,0.00,,---,0.00,VWS V14.01,2013-07-16 09:15:00,
2013-07-16 02:17:00,64.3,47.3,29.89,East,97,2.0,2.0,54,0.00,,---,0.00,VWS V14.01,2013-07-16 09:17:00,
2013-07-16 02:20:00,64.0,47.0,29.89,ENE,68,2.0,3.0,54,0.00,,---,0.00,VWS V14.01,2013-07-16 09:20:00,
2013-07-16 02:22:00,64.0,47.0,29.89,East,79,3.0,3.0,54,0.00,,---,0.00,VWS V14.01,2013-07-16 09:22:00,
2013-07-16 02:25:00,63.8,46.8,29.89,ENE,77,2.0,4.0,54,0.00,,---,0.00,VWS V14.01,2013-07-16 09:25:00,
2013-07-16 02:27:00,63.8,46.8,29.89,East,82,3.0,3.0,54,0.00,,---,0.00,VWS V14.01,2013-07-16 09:27:00,
2013-07-16 02:30:00,63.7,46.8,29.88,ENE,75,3.0,6.0,54,0.00,,---,0.00,VWS V14.01,2013-07-16 09:30:00,
2013-07-16 02:32:00,63.7,46.8,29.88,East,84,1.0,3.0,54,0.00,,---,0.00,VWS V14.01,2013-07-16 09:32:00,
2013-07-16 02:35:00,63.6,46.7,29.88,ENE,78,2.0,5.0,54,0.00,,---,0.00,VWS V14.01,2013-07-16 09:35:00,
2013-07-16 02:37:00,63.6,46.7,29.88,ENE,74,2.0,2.0,54,0.00,,---,0.00,VWS V14.01,2013-07-16 09:37:00,
2013-07-16 02:40:00,63.5,46.6,29.88,East,92,2.0,3.0,54,0.00,,---,0.00,VWS V14.01,2013-07-16 09:40:00,
2013-07-16 02:42:00,63.5,46.6,29.88,East,100,3.0,3.0,54,0.00,,---,0.00,VWS V14.01,2013-07-16 09:42:00,
2013-07-16 02:45:00,63.7,45.8,29.88,East,79,2.0,4.0,52,0.00,,---,0.00,VWS V14.01,2013-07-16 09:45:00,
2013-07-16 02:47:00,63.8,45.9,29.88,East,82,2.0,3.0,52,0.00,,---,0.00,VWS V14.01,2013-07-16 09:47:00,
2013-07-16 02:50:00,64.1,45.6,29.88,East,79,2.0,3.0,51,0.00,,---,0.00,VWS V14.01,2013-07-16 09:50:00,
2013-07-16 02:52:00,64.1,45.6,29.88,East,93,1.0,3.0,51,0.00,,---,0.00,VWS V14.01,2013-07-16 09:52:00,
2013-07-16 02:55:00,64.4,45.4,29.88,East,84,2.0,6.0,50,0.00,,---,0.00,VWS V14.01,2013-07-16 09:55:00,
2013-07-16 02:57:00,64.4,45.4,29.88,East,92,1.0,2.0,50,0.00,,---,0.00,VWS V14.01,2013-07-16 09:57:00,
2013-07-16 03:00:00,64.7,44.6,29.88,East,96,2.0,5.0,48,0.00,,---,0.00,VWS V14.01,2013-07-16 10:00:00,
2013-07-16 03:02:00,64.8,44.7,29.88,East,86,2.0,2.0,48,0.00,,---,0.00,VWS V14.01,2013-07-16 10:02:00,
2013-07-16 03:05:00,65.0,45.4,29.88,East,91,2.0,4.0,49,0.00,,---,0.00,VWS V14.01,2013-07-16 10:05:00,
2013-07-16 03:07:00,64.9,45.3,29.88,East,91,1.0,2.0,49,0.00,,---,0.00,VWS V14.01,2013-07-16 10:07:00,
2013-07-16 03:10:00,64.8,45.2,29.88,ESE,107,1.0,3.0,49,0.00,,---,0.00,VWS V14.01,2013-07-16 10:10:00,
2013-07-16 03:12:00,64.8,45.7,29.88,ESE,107,1.0,1.0,50,0.00,,---,0.00,VWS V14.01,2013-07-16 10:12:00,
2013-07-16 03:15:00,64.5,45.5,29.88,East,92,1.0,2.0,50,0.00,,---,0.00,VWS V14.01,2013-07-16 10:15:00,
2013-07-16 03:17:00,64.4,45.4,29.88,ESE,105,1.0,1.0,50,0.00,,---,0.00,VWS V14.01,2013-07-16 10:17:00,
2013-07-16 03:20:00,64.4,45.4,29.88,East,92,1.0,4.0,50,0.00,,---,0.00,VWS V14.01,2013-07-16 10:20:00,
2013-07-16 03:22:00,64.4,45.4,29.88,ESE,107,2.0,2.0,50,0.00,,---,0.00,VWS V14.01,2013-07-16 10:22:00,
2013-07-16 03:25:00,64.3,45.3,29.88,ESE,104,2.0,3.0,50,0.00,,---,0.00,VWS V14.01,2013-07-16 10:25:00,
2013-07-16 03:27:00,64.3,45.3,29.88,East,92,1.0,2.0,50,0.00,,---,0.00,VWS V14.01,2013-07-16 10:27:00,
2013-07-16 03:30:00,64.3,45.8,29.88,East,98,2.0,3.0,51,0.00,,---,0.00,VWS V14.01,2013-07-16 10:30:00,
2013-07-16 03:32:00,64.2,45.7,29.88,East,97,2.0,2.0,51,0.00,,---,0.00,VWS V14.01,2013-07-16 10:32:00,
2013-07-16 03:35:00,64.3,45.8,29.88,East,91,1.0,3.0,51,0.00,,---,0.00,VWS V14.01,2013-07-16 10:35:00,
2013-07-16 03:37:00,64.3,45.8,29.88,ESE,107,2.0,2.0,51,0.00,,---,0.00,VWS V14.01,2013-07-16 10:37:00,
2013-07-16 03:40:00,64.2,46.2,29.88,East,98,2.0,3.0,52,0.00,,---,0.00,VWS V14.01,2013-07-16 10:40:00,
2013-07-16 03:42:00,64.2,46.2,29.88,East,94,3.0,3.0,52,0.00,,---,0.00,VWS V14.01,2013-07-16 10:42:00,
2013-07-16 03:45:00,64.2,46.2,29.88,East,94,2.0,3.0,52,0.00,,---,0.00,VWS V14.01,2013-07-16 10:45:00,
2013-07-16 03:47:00,64.3,46.8,29.88,East,96,2.0,3.0,53,0.00,,---,0.00,VWS V14.01,2013-07-16 10:47:00,
2013-07-16 03:50:00,64.2,47.2,29.88,East,97,0.0,3.0,54,0.00,,---,0.00,VWS V14.01,2013-07-16 10:50:00,
2013-07-16 03:51:00,64.1,47.1,29.88,ESE,113,0.0,0.0,54,0.00,,---,0.00,VWS V14.01,2013-07-16 10:51:00,
2013-07-16 03:55:00,64.0,47.0,29.88,East,93,2.0,4.0,54,0.00,,---,0.00,VWS V14.01,2013-07-16 10:55:00,
2013-07-16 03:56:00,64.0,47.0,29.88,East,91,2.0,2.0,54,0.00,,---,0.00,VWS V14.01,2013-07-16 10:56:00,
2013-07-16 04:00:00,63.7,47.2,29.88,ESE,105,3.0,3.0,55,0.00,,---,0.00,VWS V14.01,2013-07-16 11:00:00,
2013-07-16 04:01:00,63.7,47.2,29.88,East,98,2.0,3.0,55,0.00,,---,0.00,VWS V14.01,2013-07-16 11:01:00,
2013-07-16 04:05:00,63.4,47.5,29.88,East,86,0.0,3.0,56,0.00,,---,0.00,VWS V14.01,2013-07-16 11:05:00,
2013-07-16 04:06:00,63.4,47.5,29.88,East,86,0.0,0.0,56,0.00,,---,0.00,VWS V14.01,2013-07-16 11:06:00,
2013-07-16 04:10:00,62.9,47.5,29.88,East,86,1.0,1.0,57,0.00,,---,0.00,VWS V14.01,2013-07-16 11:10:00,
2013-07-16 04:11:00,62.9,47.5,29.88,East,86,1.0,1.0,57,0.00,,---,0.00,VWS V14.01,2013-07-16 11:11:00,
2013-07-16 04:15:00,62.7,47.3,29.88,East,89,1.0,2.0,57,0.00,,---,0.00,VWS V14.01,2013-07-16 11:15:00,
2013-07-16 04:16:00,62.7,47.3,29.88,East,89,1.0,1.0,57,0.00,,---,0.00,VWS V14.01,2013-07-16 11:16:00,
2013-07-16 04:20:00,62.6,46.7,29.88,East,97,2.0,2.0,56,0.00,,---,0.00,VWS V14.01,2013-07-16 11:20:00,
2013-07-16 04:21:00,62.6,46.7,29.88,East,99,2.0,2.0,56,0.00,,---,0.00,VWS V14.01,2013-07-16 11:21:00,
2013-07-16 04:25:00,62.6,46.2,29.88,East,94,2.0,2.0,55,0.00,,---,0.00,VWS V14.01,2013-07-16 11:25:00,
2013-07-16 04:26:00,62.6,46.2,29.88,East,94,1.0,2.0,55,0.00,,---,0.00,VWS V14.01,2013-07-16 11:26:00,
2013-07-16 04:30:00,62.5,46.1,29.88,East,91,2.0,3.0,55,0.00,,---,0.00,VWS V14.01,2013-07-16 11:30:00,
2013-07-16 04:31:00,62.5,46.1,29.88,East,95,3.0,3.0,55,0.00,,---,0.00,VWS V14.01,2013-07-16 11:31:00,
2013-07-16 04:35:00,62.6,46.2,29.88,East,101,3.0,4.0,55,0.00,,---,0.00,VWS V14.01,2013-07-16 11:35:00,
2013-07-16 04:36:00,62.6,46.2,29.88,East,96,2.0,3.0,55,0.00,,---,0.00,VWS V14.01,2013-07-16 11:36:00,
2013-07-16 04:40:00,62.5,46.1,29.88,ESE,104,1.0,3.0,55,0.00,,---,0.00,VWS V14.01,2013-07-16 11:40:00,
2013-07-16 04:41:00,62.4,46.0,29.88,East,101,1.0,2.0,55,0.00,,---,0.00,VWS V14.01,2013-07-16 11:41:00,
2013-07-16 04:45:00,62.2,45.8,29.88,ESE,116,2.0,2.0,55,0.00,,---,0.00,VWS V14.01,2013-07-16 11:45:00,
2013-07-16 04:46:00,62.3,46.0,29.88,ESE,116,1.0,2.0,55,0.00,,---,0.00,VWS V14.01,2013-07-16 11:46:00,
2013-07-16 04:50:00,62.2,45.8,29.88,East,94,1.0,3.0,55,0.00,,---,0.00,VWS V14.01,2013-07-16 11:50:00,
2013-07-16 04:51:00,62.2,45.8,29.88,East,94,1.0,1.0,55,0.00,,---,0.00,VWS V14.01,2013-07-16 11:51:00,
2013-07-16 04:55:00,62.8,44.9,29.88,East,79,2.0,4.0,52,0.00,,---,0.00,VWS V14.01,2013-07-16 11:55:00,
2013-07-16 04:56:00,62.8,44.9,29.88,East,79,1.0,2.0,52,0.00,,---,0.00,VWS V14.01,2013-07-16 11:56:00,
2013-07-16 05:00:00,63.2,45.3,29.88,East,81,3.0,4.0,52,0.00,,---,0.00,VWS V14.01,2013-07-16 12:00:00,
2013-07-16 05:01:00,63.2,45.3,29.88,East,89,2.0,3.0,52,0.00,,---,0.00,VWS V14.01,2013-07-16 12:01:00,
2013-07-16 05:05:00,63.3,45.4,29.88,East,96,2.0,3.0,52,0.00,,---,0.00,VWS V14.01,2013-07-16 12:05:00,
2013-07-16 05:06:00,63.3,45.4,29.88,East,95,2.0,2.0,52,0.00,,---,0.00,VWS V14.01,2013-07-16 12:06:00,
2013-07-16 05:10:00,63.3,45.4,29.88,East,92,2.0,4.0,52,0.00,,---,0.00,VWS V14.01,2013-07-16 12:10:00,
2013-07-16 05:11:00,63.3,45.4,29.88,East,86,2.0,2.0,52,0.00,,---,0.00,VWS V14.01,2013-07-16 12:11:00,
2013-07-16 05:15:00,63.3,44.9,29.88,East,93,2.0,4.0,51,0.00,,---,0.00,VWS V14.01,2013-07-16 12:15:00,
2013-07-16 05:16:00,63.3,44.9,29.88,ESE,103,2.0,3.0,51,0.00,,---,0.00,VWS V14.01,2013-07-16 12:16:00,
2013-07-16 05:20:00,63.2,45.3,29.88,East,94,1.0,3.0,52,0.00,,---,0.00,VWS V14.01,2013-07-16 12:20:00,
2013-07-16 05:21:00,63.2,45.3,29.88,East,87,1.0,1.0,52,0.00,,---,0.00,VWS V14.01,2013-07-16 12:21:00,
2013-07-16 05:25:00,62.9,45.5,29.88,ESE,104,0.0,2.0,53,0.00,,---,0.00,VWS V14.01,2013-07-16 12:25:00,
2013-07-16 05:26:00,62.9,45.5,29.88,ESE,104,0.0,0.0,53,0.00,,---,0.00,VWS V14.01,2013-07-16 12:26:00,
2013-07-16 05:30:00,62.7,45.3,29.87,East,89,1.0,2.0,53,0.00,,---,0.00,VWS V14.01,2013-07-16 12:30:00,
2013-07-16 05:31:00,62.7,45.3,29.87,East,89,1.0,1.0,53,0.00,,---,0.00,VWS V14.01,2013-07-16 12:31:00,
2013-07-16 05:35:00,62.5,45.7,29.88,East,89,1.0,1.0,54,0.00,,---,0.00,VWS V14.01,2013-07-16 12:35:00,
2013-07-16 05:36:00,62.5,45.7,29.88,East,90,1.0,1.0,54,0.00,,---,0.00,VWS V14.01,2013-07-16 12:36:00,
2013-07-16 05:40:00,62.5,45.7,29.88,East,93,1.0,2.0,54,0.00,,---,0.00,VWS V14.01,2013-07-16 12:40:00,
2013-07-16 05:41:00,62.5,45.7,29.88,East,93,1.0,1.0,54,0.00,,---,0.00,VWS V14.01,2013-07-16 12:41:00,
2013-07-16 05:45:00,62.3,45.9,29.88,East,93,2.0,2.0,55,0.00,,---,0.00,VWS V14.01,2013-07-16 12:45:00,
2013-07-16 05:46:00,62.3,46.0,29.88,East,93,1.0,2.0,55,0.00,,---,0.00,VWS V14.01,2013-07-16 12:46:00,
2013-07-16 05:50:00,62.2,45.8,29.88,East,94,1.0,2.0,55,0.00,,---,0.00,VWS V14.01,2013-07-16 12:50:00,
2013-07-16 05:51:00,62.2,45.8,29.88,East,94,1.0,1.0,55,0.00,,---,0.00,VWS V14.01,2013-07-16 12:51:00,
2013-07-16 05:55:00,62.1,45.8,29.88,East,94,0.0,1.0,55,0.00,,---,0.00,VWS V14.01,2013-07-16 12:55:00,
2013-07-16 05:56:00,62.1,45.8,29.88,East,94,0.0,0.0,55,0.00,,---,0.00,VWS V14.01,2013-07-16 12:56:00,
2013-07-16 06:00:00,62.1,46.2,29.88,East,92,0.0,0.0,56,0.00,,---,0.00,VWS V14.01,2013-07-16 13:00:00,
2013-07-16 06:01:00,62.1,46.2,29.88,East,92,0.0,0.0,56,0.00,,---,0.00,VWS V14.01,2013-07-16 13:01:00,
2013-07-16 06:05:00,62.0,46.6,29.88,East,92,0.0,0.0,57,0.00,,---,0.00,VWS V14.01,2013-07-16 13:05:00,
2013-07-16 06:06:00,62.0,46.6,29.88,East,92,0.0,0.0,57,0.00,,---,0.00,VWS V14.01,2013-07-16 13:06:00,
2013-07-16 06:10:00,62.0,46.6,29.88,East,79,1.0,1.0,57,0.00,,---,0.00,VWS V14.01,2013-07-16 13:10:00,
2013-07-16 06:11:00,62.0,46.6,29.88,ENE,78,1.0,1.0,57,0.00,,---,0.00,VWS V14.01,2013-07-16 13:11:00,
2013-07-16 06:15:00,62.1,46.7,29.88,NE,46,1.0,1.0,57,0.00,,---,0.00,VWS V14.01,2013-07-16 13:15:00,
2013-07-16 06:16:00,62.1,46.7,29.88,NE,46,0.0,1.0,57,0.00,,---,0.00,VWS V14.01,2013-07-16 13:16:00,
2013-07-16 06:20:00,62.0,46.6,29.88,ESE,103,0.0,2.0,57,0.00,,---,0.00,VWS V14.01,2013-07-16 13:20:00,
2013-07-16 06:21:00,62.0,46.6,29.88,ESE,103,0.0,0.0,57,0.00,,---,0.00,VWS V14.01,2013-07-16 13:21:00,
2013-07-16 06:25:00,62.0,46.6,29.88,ESE,103,0.0,0.0,57,0.00,,---,0.00,VWS V14.01,2013-07-16 13:25:00,
2013-07-16 06:26:00,62.0,46.6,29.88,ESE,103,0.0,0.0,57,0.00,,---,0.00,VWS V14.01,2013-07-16 13:26:00,
2013-07-16 06:30:00,61.8,47.3,29.88,ESE,103,0.0,0.0,59,0.00,,---,0.00,VWS V14.01,2013-07-16 13:30:00,
2013-07-16 06:31:00,61.8,47.3,29.88,ESE,103,0.0,0.0,59,0.00,,---,0.00,VWS V14.01,2013-07-16 13:31:00,
2013-07-16 06:35:00,61.5,47.1,29.88,ESE,103,0.0,0.0,59,0.00,,---,0.00,VWS V14.01,2013-07-16 13:35:00,
2013-07-16 06:36:00,61.5,47.1,29.88,ESE,103,0.0,0.0,59,0.00,,---,0.00,VWS V14.01,2013-07-16 13:36:00,
2013-07-16 06:40:00,61.5,47.1,29.88,ESE,103,0.0,0.0,59,0.00,,---,0.00,VWS V14.01,2013-07-16 13:40:00,
2013-07-16 06:41:00,61.6,47.2,29.88,ESE,103,0.0,0.0,59,0.00,,---,0.00,VWS V14.01,2013-07-16 13:41:00,
2013-07-16 06:45:00,61.6,47.6,29.88,ESE,103,0.0,0.0,60,0.00,,---,0.00,VWS V14.01,2013-07-16 13:45:00,
2013-07-16 06:46:00,61.6,47.6,29.88,ESE,103,0.0,0.0,60,0.00,,---,0.00,VWS V14.01,2013-07-16 13:46:00,
2013-07-16 06:50:00,61.6,46.7,29.88,ESE,103,0.0,0.0,58,0.00,,---,0.00,VWS V14.01,2013-07-16 13:50:00,
2013-07-16 06:51:00,61.6,46.7,29.88,ESE,103,0.0,0.0,58,0.00,,---,0.00,VWS V14.01,2013-07-16 13:51:00,
2013-07-16 06:55:00,61.8,46.9,29.88,ESE,103,0.0,0.0,58,0.00,,---,0.00,VWS V14.01,2013-07-16 13:55:00,
2013-07-16 06:56:00,61.7,46.8,29.88,ESE,103,0.0,0.0,58,0.00,,---,0.00,VWS V14.01,2013-07-16 13:56:00,
2013-07-16 07:00:00,62.0,47.1,29.88,ESE,103,0.0,0.0,58,0.00,,---,0.00,VWS V14.01,2013-07-16 14:00:00,
2013-07-16 07:01:00,62.0,47.1,29.88,ESE,103,0.0,0.0,58,0.00,,---,0.00,VWS V14.01,2013-07-16 14:01:00,
2013-07-16 07:05:00,62.1,47.6,29.88,ESE,103,0.0,0.0,59,0.00,,---,0.00,VWS V14.01,2013-07-16 14:05:00,
2013-07-16 07:06:00,62.2,47.7,29.88,ESE,103,0.0,0.0,59,0.00,,---,0.00,VWS V14.01,2013-07-16 14:06:00,
2013-07-16 07:10:00,62.7,48.2,29.88,ESE,103,0.0,0.0,59,0.00,,---,0.00,VWS V14.01,2013-07-16 14:10:00,
2013-07-16 07:11:00,62.7,48.2,29.88,ESE,103,0.0,0.0,59,0.00,,---,0.00,VWS V14.01,2013-07-16 14:11:00,
2013-07-16 07:15:00,63.4,49.3,29.88,ENE,70,0.0,0.0,60,0.00,,---,0.00,VWS V14.01,2013-07-16 14:15:00,
2013-07-16 07:16:00,63.4,49.3,29.87,ENE,67,0.0,0.0,60,0.00,,---,0.00,VWS V14.01,2013-07-16 14:16:00,
2013-07-16 07:20:00,64.4,49.8,29.87,NE,43,3.0,3.0,59,0.00,,---,0.00,VWS V14.01,2013-07-16 14:20:00,
2013-07-16 07:21:00,64.4,49.8,29.87,NE,43,3.0,3.0,59,0.00,,---,0.00,VWS V14.01,2013-07-16 14:21:00,
2013-07-16 07:25:00,65.2,50.1,29.87,NE,47,0.0,3.0,58,0.00,,---,0.00,VWS V14.01,2013-07-16 14:25:00,
2013-07-16 07:26:00,65.2,50.1,29.87,NE,47,0.0,3.0,58,0.00,,---,0.00,VWS V14.01,2013-07-16 14:26:00,
2013-07-16 07:30:00,65.9,50.3,29.87,NNW,341,1.0,1.0,57,0.00,,---,0.00,VWS V14.01,2013-07-16 14:30:00,
2013-07-16 07:31:00,65.9,50.2,29.87,NNW,341,1.0,1.0,57,0.00,,---,0.00,VWS V14.01,2013-07-16 14:31:00,
2013-07-16 07:35:00,66.3,50.6,29.88,NNW,347,3.0,4.0,57,0.00,,---,0.00,VWS V14.01,2013-07-16 14:35:00,
2013-07-16 07:36:00,66.3,50.6,29.88,NNW,347,3.0,4.0,57,0.00,,---,0.00,VWS V14.01,2013-07-16 14:36:00,
2013-07-16 07:40:00,66.5,50.8,29.88,NNW,330,1.0,7.0,57,0.00,,---,0.00,VWS V14.01,2013-07-16 14:40:00,
2013-07-16 07:41:00,66.5,50.8,29.88,NNW,330,1.0,7.0,57,0.00,,---,0.00,VWS V14.01,2013-07-16 14:41:00,
2013-07-16 07:45:00,66.8,51.1,29.88,NE,51,0.0,5.0,57,0.00,,---,0.00,VWS V14.01,2013-07-16 14:45:00,
2013-07-16 07:46:00,66.8,51.1,29.88,NE,51,0.0,5.0,57,0.00,,---,0.00,VWS V14.01,2013-07-16 14:46:00,
2013-07-16 07:50:00,67.1,51.4,29.88,East,101,2.0,3.0,57,0.00,,---,0.00,VWS V14.01,2013-07-16 14:50:00,
2013-07-16 07:51:00,67.1,51.4,29.88,East,101,2.0,3.0,57,0.00,,---,0.00,VWS V14.01,2013-07-16 14:51:00,
2013-07-16 07:55:00,67.4,51.2,29.88,NW,311,2.0,7.0,56,0.00,,---,0.00,VWS V14.01,2013-07-16 14:55:00,
2013-07-16 07:56:00,67.4,51.2,29.88,NW,311,2.0,7.0,56,0.00,,---,0.00,VWS V14.01,2013-07-16 14:56:00,
2013-07-16 08:00:00,67.5,51.3,29.88,NW,312,3.0,7.0,56,0.00,,---,0.00,VWS V14.01,2013-07-16 15:00:00,
2013-07-16 08:01:00,67.5,51.3,29.88,NW,312,3.0,7.0,56,0.00,,---,0.00,VWS V14.01,2013-07-16 15:01:00,
2013-07-16 08:05:00,67.4,51.7,29.87,West,267,1.0,8.0,57,0.00,,---,0.00,VWS V14.01,2013-07-16 15:05:00,
2013-07-16 08:06:00,67.4,51.7,29.87,West,267,1.0,8.0,57,0.00,,---,0.00,VWS V14.01,2013-07-16 15:06:00,
2013-07-16 08:10:00,67.6,51.8,29.87,NNW,330,4.0,7.0,57,0.00,,---,0.00,VWS V14.01,2013-07-16 15:10:00,
2013-07-16 08:11:00,67.6,51.8,29.87,NNW,330,4.0,7.0,57,0.00,,---,0.00,VWS V14.01,2013-07-16 15:11:00,
2013-07-16 08:15:00,67.6,51.8,29.87,NE,49,4.0,12.0,57,0.00,,---,0.00,VWS V14.01,2013-07-16 15:15:00,
2013-07-16 08:16:00,67.6,51.8,29.87,NE,49,4.0,12.0,57,0.00,,---,0.00,VWS V14.01,2013-07-16 15:16:00,
2013-07-16 08:20:00,67.6,51.4,29.87,NE,46,5.0,11.0,56,0.00,,---,0.00,VWS V14.01,2013-07-16 15:20:00,
2013-07-16 08:21:00,67.6,51.4,29.87,NE,46,5.0,11.0,56,0.00,,---,0.00,VWS V14.01,2013-07-16 15:21:00,
2013-07-16 08:25:00,67.9,52.1,29.87,ENE,75,3.0,7.0,57,0.00,,---,0.00,VWS V14.01,2013-07-16 15:25:00,
2013-07-16 08:26:00,67.9,52.1,29.87,ENE,75,3.0,7.0,57,0.00,,---,0.00,VWS V14.01,2013-07-16 15:26:00,
2013-07-16 08:30:00,68.0,51.7,29.87,WNW,295,1.0,14.0,56,0.00,,---,0.00,VWS V14.01,2013-07-16 15:30:00,
2013-07-16 08:31:00,68.0,51.7,29.87,WNW,295,1.0,14.0,56,0.00,,---,0.00,VWS V14.01,2013-07-16 15:31:00,
2013-07-16 08:35:00,68.2,51.9,29.86,NNE,15,3.0,7.0,56,0.00,,---,0.00,VWS V14.01,2013-07-16 15:35:00,
2013-07-16 08:36:00,68.2,51.9,29.86,NNE,15,3.0,7.0,56,0.00,,---,0.00,VWS V14.01,2013-07-16 15:36:00,
2013-07-16 08:40:00,68.4,51.6,29.86,NNW,337,5.0,10.0,55,0.00,,---,0.00,VWS V14.01,2013-07-16 15:40:00,
2013-07-16 08:41:00,68.4,51.6,29.86,NNW,337,5.0,10.0,55,0.00,,---,0.00,VWS V14.01,2013-07-16 15:41:00,
2013-07-16 08:45:00,68.6,52.3,29.86,WNW,293,3.0,9.0,56,0.00,,---,0.00,VWS V14.01,2013-07-16 15:45:00,
2013-07-16 08:46:00,68.6,52.3,29.86,WNW,293,3.0,9.0,56,0.00,,---,0.00,VWS V14.01,2013-07-16 15:46:00,
2013-07-16 08:50:00,68.9,52.1,29.86,NW,309,1.0,8.0,55,0.00,,---,0.00,VWS V14.01,2013-07-16 15:50:00,
2013-07-16 08:51:00,68.9,52.1,29.86,NW,309,1.0,8.0,55,0.00,,---,0.00,VWS V14.01,2013-07-16 15:51:00,
2013-07-16 08:55:00,69.1,51.8,29.86,NW,320,5.0,9.0,54,0.00,,---,0.00,VWS V14.01,2013-07-16 15:55:00,
2013-07-16 08:56:00,69.1,51.8,29.86,NW,312,3.0,9.0,54,0.00,,---,0.00,VWS V14.01,2013-07-16 15:56:00,
2013-07-16 09:00:00,69.1,52.3,29.86,West,279,1.0,11.0,55,0.00,,---,0.00,VWS V14.01,2013-07-16 16:00:00,
2013-07-16 09:01:00,69.1,52.3,29.86,West,260,1.0,11.0,55,0.00,,---,0.00,VWS V14.01,2013-07-16 16:01:00,
2013-07-16 09:05:00,69.2,51.4,29.86,NNW,329,3.0,8.0,53,0.00,,---,0.00,VWS V14.01,2013-07-16 16:05:00,
2013-07-16 09:06:00,69.2,51.4,29.86,NW,323,4.0,8.0,53,0.00,,---,0.00,VWS V14.01,2013-07-16 16:06:00,
2013-07-16 09:10:00,69.4,51.5,29.86,NNW,339,1.0,9.0,53,0.00,,---,0.00,VWS V14.01,2013-07-16 16:10:00,
2013-07-16 09:11:00,69.3,51.5,29.86,East,95,2.0,9.0,53,0.00,,---,0.00,VWS V14.01,2013-07-16 16:11:00,
2013-07-16 09:15:00,69.6,51.7,29.86,WNW,302,4.0,9.0,53,0.00,,---,0.00,VWS V14.01,2013-07-16 16:15:00,
2013-07-16 09:16:00,69.6,51.7,29.86,NNW,333,3.0,9.0,53,0.00,,---,0.00,VWS V14.01,2013-07-16 16:16:00,
2013-07-16 09:20:00,69.3,51.5,29.86,WNW,303,3.0,11.0,53,0.00,,---,0.00,VWS V14.01,2013-07-16 16:20:00,
2013-07-16 09:21:00,69.3,51.5,29.86,NW,319,4.0,11.0,53,0.00,,---,0.00,VWS V14.01,2013-07-16 16:21:00,
2013-07-16 09:25:00,69.3,52.0,29.86,NNW,336,6.0,9.0,54,0.00,,---,0.00,VWS V14.01,2013-07-16 16:25:00,
2013-07-16 09:26:00,69.3,52.0,29.86,NNW,330,6.0,9.0,54,0.00,,---,0.00,VWS V14.01,2013-07-16 16:26:00,
2013-07-16 09:30:00,69.7,52.3,29.86,North,11,3.0,7.0,54,0.00,,---,0.00,VWS V14.01,2013-07-16 16:30:00,
2013-07-16 09:31:00,69.7,52.3,29.86,WNW,300,2.0,7.0,54,0.00,,---,0.00,VWS V14.01,2013-07-16 16:31:00,
2013-07-16 09:35:00,69.9,52.0,29.86,North,356,5.0,10.0,53,0.00,,---,0.00,VWS V14.01,2013-07-16 16:35:00,
2013-07-16 09:36:00,69.9,52.0,29.86,WNW,289,6.0,10.0,53,0.00,,---,0.00,VWS V14.01,2013-07-16 16:36:00,
2013-07-16 09:40:00,70.1,52.2,29.87,NNW,331,3.0,7.0,53,0.00,,---,0.00,VWS V14.01,2013-07-16 16:40:00,
2013-07-16 09:41:00,70.1,52.2,29.87,WNW,302,4.0,7.0,53,0.00,,---,0.00,VWS V14.01,2013-07-16 16:41:00,
2013-07-16 09:45:00,70.1,52.2,29.86,NW,322,2.0,9.0,53,0.00,,---,0.00,VWS V14.01,2013-07-16 16:45:00,
2013-07-16 09:46:00,70.1,52.2,29.86,NE,53,2.0,9.0,53,0.00,,---,0.00,VWS V14.01,2013-07-16 16:46:00,
2013-07-16 09:50:00,70.2,52.3,29.86,WNW,303,11.0,11.0,53,0.00,,---,0.00,VWS V14.01,2013-07-16 16:50:00,
2013-07-16 09:51:00,70.2,52.3,29.86,NW,321,4.0,9.0,53,0.00,,---,0.00,VWS V14.01,2013-07-16 16:51:00,
2013-07-16 09:55:00,70.3,52.4,29.86,ENE,58,6.0,13.0,53,0.00,,---,0.00,VWS V14.01,2013-07-16 16:55:00,
2013-07-16 09:56:00,70.3,52.4,29.86,WNW,302,7.0,13.0,53,0.00,,---,0.00,VWS V14.01,2013-07-16 16:56:00,
2013-07-16 10:00:00,70.7,51.7,29.86,NW,313,9.0,10.0,51,0.00,,---,0.00,VWS V14.01,2013-07-16 17:00:00,
2013-07-16 10:01:00,70.7,51.7,29.86,NNW,330,6.0,10.0,51,0.00,,---,0.00,VWS V14.01,2013-07-16 17:01:00,
2013-07-16 10:05:00,70.8,51.8,29.86,WNW,302,7.0,16.0,51,0.00,,---,0.00,VWS V14.01,2013-07-16 17:05:00,
2013-07-16 10:06:00,70.8,51.8,29.86,NNW,337,8.0,16.0,51,0.00,,---,0.00,VWS V14.01,2013-07-16 17:06:00,
2013-07-16 10:10:00,71.1,51.5,29.86,WNW,295,1.0,14.0,50,0.00,,---,0.00,VWS V14.01,2013-07-16 17:10:00,
2013-07-16 10:11:00,71.1,51.5,29.86,ESE,102,3.0,14.0,50,0.00,,---,0.00,VWS V14.01,2013-07-16 17:11:00,
2013-07-16 10:15:00,71.2,52.2,29.86,WNW,300,8.0,11.0,51,0.00,,---,0.00,VWS V14.01,2013-07-16 17:15:00,
2013-07-16 10:16:00,71.2,52.2,29.86,NNE,12,7.0,11.0,51,0.00,,---,0.00,VWS V14.01,2013-07-16 17:16:00,
2013-07-16 10:20:00,71.4,51.8,29.86,NW,311,7.0,12.0,50,0.00,,---,0.00,VWS V14.01,2013-07-16 17:20:00,
2013-07-16 10:21:00,71.4,52.3,29.86,NW,321,12.0,12.0,51,0.00,,---,0.00,VWS V14.01,2013-07-16 17:21:00,
2013-07-16 10:25:00,71.5,52.4,29.86,NNW,346,5.0,11.0,51,0.00,,---,0.00,VWS V14.01,2013-07-16 17:25:00,
2013-07-16 10:26:00,71.5,52.4,29.86,WNW,300,9.0,11.0,51,0.00,,---,0.00,VWS V14.01,2013-07-16 17:26:00,
2013-07-16 10:30:00,71.6,52.0,29.86,NW,321,2.0,9.0,50,0.00,,---,0.00,VWS V14.01,2013-07-16 17:30:00,
2013-07-16 10:31:00,71.6,52.0,29.86,WNW,302,3.0,9.0,50,0.00,,---,0.00,VWS V14.01,2013-07-16 17:31:00,
2013-07-16 10:35:00,71.7,52.1,29.86,West,279,4.0,14.0,50,0.00,,---,0.00,VWS V14.01,2013-07-16 17:35:00,
2013-07-16 10:36:00,71.7,52.1,29.86,NNW,333,3.0,14.0,50,0.00,,---,0.00,VWS V14.01,2013-07-16 17:36:00,
2013-07-16 10:40:00,72.2,52.0,29.86,NW,307,8.0,11.0,49,0.00,,---,0.00,VWS V14.01,2013-07-16 17:40:00,
2013-07-16 10:41:00,72.2,52.0,29.86,NW,307,5.0,11.0,49,0.00,,---,0.00,VWS V14.01,2013-07-16 17:41:00,
2013-07-16 10:45:00,72.4,51.6,29.86,NW,306,7.0,14.0,48,0.00,,---,0.00,VWS V14.01,2013-07-16 17:45:00,
2013-07-16 10:46:00,72.4,51.6,29.86,West,269,4.0,14.0,48,0.00,,---,0.00,VWS V14.01,2013-07-16 17:46:00,
2013-07-16 10:50:00,72.4,51.6,29.85,NW,318,1.0,15.0,48,0.00,,---,0.00,VWS V14.01,2013-07-16 17:50:00,
2013-07-16 10:51:00,72.4,51.0,29.85,NW,321,5.0,15.0,47,0.00,,---,0.00,VWS V14.01,2013-07-16 17:51:00,
2013-07-16 10:55:00,72.5,51.7,29.85,NW,319,7.0,13.0,48,0.00,,---,0.00,VWS V14.01,2013-07-16 17:55:00,
2013-07-16 10:56:00,72.5,51.7,29.85,WNW,286,11.0,13.0,48,0.00,,---,0.00,VWS V14.01,2013-07-16 17:56:00,
2013-07-16 11:00:00,72.7,51.9,29.85,NW,316,4.0,11.0,48,0.00,,---,0.00,VWS V14.01,2013-07-16 18:00:00,
2013-07-16 11:01:00,72.7,51.9,29.85,NE,34,4.0,11.0,48,0.00,,---,0.00,VWS V14.01,2013-07-16 18:01:00,
2013-07-16 11:05:00,72.9,52.1,29.85,NW,308,8.0,15.0,48,0.00,,---,0.00,VWS V14.01,2013-07-16 18:05:00,
2013-07-16 11:06:00,72.9,52.1,29.85,NW,323,10.0,15.0,48,0.00,,---,0.00,VWS V14.01,2013-07-16 18:06:00,
2013-07-16 11:10:00,73.5,52.6,29.85,NE,53,2.0,10.0,48,0.00,,---,0.00,VWS V14.01,2013-07-16 18:10:00,
2013-07-16 11:11:00,73.5,52.6,29.85,NW,325,5.0,10.0,48,0.00,,---,0.00,VWS V14.01,2013-07-16 18:11:00,
2013-07-16 11:15:00,73.8,52.3,29.86,NW,319,3.0,11.0,47,0.00,,---,0.00,VWS V14.01,2013-07-16 18:15:00,
2013-07-16 11:16:00,73.8,52.3,29.86,WNW,302,6.0,11.0,47,0.00,,---,0.00,VWS V14.01,2013-07-16 18:16:00,
2013-07-16 11:20:00,74.1,52.6,29.86,NNE,13,5.0,10.0,47,0.00,,---,0.00,VWS V14.01,2013-07-16 18:20:00,
2013-07-16 11:21:00,74.0,52.5,29.86,NW,316,2.0,10.0,47,0.00,,---,0.00,VWS V14.01,2013-07-16 18:21:00,
2013-07-16 11:25:00,74.7,52.6,29.86,NW,319,6.0,10.0,46,0.00,,---,0.00,VWS V14.01,2013-07-16 18:25:00,
2013-07-16 11:26:00,74.7,53.2,29.86,NW,307,3.0,10.0,47,0.00,,---,0.00,VWS V14.01,2013-07-16 18:26:00,
2013-07-16 11:30:00,74.7,52.6,29.86,WNW,295,9.0,13.0,46,0.00,,---,0.00,VWS V14.01,2013-07-16 18:30:00,
2013-07-16 11:31:00,74.7,52.6,29.86,NNW,328,4.0,13.0,46,0.00,,---,0.00,VWS V14.01,2013-07-16 18:31:00,
2013-07-16 11:35:00,74.4,52.3,29.86,NNW,340,8.0,11.0,46,0.00,,---,0.00,VWS V14.01,2013-07-16 18:35:00,
2013-07-16 11:36:00,74.5,52.4,29.86,NE,37,4.0,11.0,46,0.00,,---,0.00,VWS V14.01,2013-07-16 18:36:00,
2013-07-16 11:40:00,74.9,52.8,29.85,WNW,285,8.0,11.0,46,0.00,,---,0.00,VWS V14.01,2013-07-16 18:40:00,
2013-07-16 11:41:00,74.9,52.8,29.85,NW,322,1.0,11.0,46,0.00,,---,0.00,VWS V14.01,2013-07-16 18:41:00,
2013-07-16 11:45:00,75.2,52.4,29.85,NNW,330,9.0,11.0,45,0.00,,---,0.00,VWS V14.01,2013-07-16 18:45:00,
2013-07-16 11:46:00,75.2,52.4,29.85,WNW,301,6.0,11.0,45,0.00,,---,0.00,VWS V14.01,2013-07-16 18:46:00,
2013-07-16 11:50:00,76.0,52.5,29.85,NW,321,1.0,11.0,44,0.00,,---,0.00,VWS V14.01,2013-07-16 18:50:00,
2013-07-16 11:51:00,75.9,52.5,29.85,WNW,297,2.0,11.0,44,0.00,,---,0.00,VWS V14.01,2013-07-16 18:51:00,
2013-07-16 11:55:00,76.0,51.9,29.85,WSW,240,4.0,9.0,43,0.00,,---,0.00,VWS V14.01,2013-07-16 18:55:00,
2013-07-16 11:56:00,76.0,51.9,29.85,WNW,301,8.0,9.0,43,0.00,,---,0.00,VWS V14.01,2013-07-16 18:56:00,
2013-07-16 12:00:00,76.4,51.6,29.85,NW,321,6.0,11.0,42,0.00,,---,0.00,VWS V14.01,2013-07-16 19:00:00,
2013-07-16 12:01:00,76.3,51.5,29.85,NW,316,7.0,11.0,42,0.00,,---,0.00,VWS V14.01,2013-07-16 19:01:00,
2013-07-16 12:05:00,76.3,51.5,29.85,NW,304,10.0,11.0,42,0.00,,---,0.00,VWS V14.01,2013-07-16 19:05:00,
2013-07-16 12:06:00,76.4,51.6,29.85,West,271,7.0,11.0,42,0.00,,---,0.00,VWS V14.01,2013-07-16 19:06:00,
2013-07-16 12:10:00,76.1,51.4,29.86,NNW,331,5.0,10.0,42,0.00,,---,0.00,VWS V14.01,2013-07-16 19:10:00,
2013-07-16 12:11:00,76.1,51.4,29.86,NW,321,5.0,10.0,42,0.00,,---,0.00,VWS V14.01,2013-07-16 19:11:00,
2013-07-16 12:15:00,76.1,52.0,29.86,NW,313,4.0,9.0,43,0.00,,---,0.00,VWS V14.01,2013-07-16 19:15:00,
2013-07-16 12:16:00,76.2,52.1,29.86,NW,312,3.0,9.0,43,0.00,,---,0.00,VWS V14.01,2013-07-16 19:16:00,
2013-07-16 12:20:00,76.1,52.0,29.86,NW,313,2.0,10.0,43,0.00,,---,0.00,VWS V14.01,2013-07-16 19:20:00,
2013-07-16 12:21:00,76.1,52.0,29.86,WNW,292,7.0,10.0,43,0.00,,---,0.00,VWS V14.01,2013-07-16 19:21:00,
2013-07-16 12:25:00,76.0,51.9,29.85,NW,309,3.0,10.0,43,0.00,,---,0.00,VWS V14.01,2013-07-16 19:25:00,
2013-07-16 12:26:00,76.0,51.9,29.85,NW,312,5.0,10.0,43,0.00,,---,0.00,VWS V14.01,2013-07-16 19:26:00,
2013-07-16 12:30:00,76.4,51.6,29.86,NNW,340,6.0,10.0,42,0.00,,---,0.00,VWS V14.01,2013-07-16 19:30:00,
2013-07-16 12:31:00,76.4,52.3,29.86,NNW,331,4.0,10.0,43,0.00,,---,0.00,VWS V14.01,2013-07-16 19:31:00,
2013-07-16 12:35:00,76.9,51.4,29.86,NNW,347,6.0,12.0,41,0.00,,---,0.00,VWS V14.01,2013-07-16 19:35:00,
2013-07-16 12:36:00,76.9,51.4,29.86,NW,324,8.0,12.0,41,0.00,,---,0.00,VWS V14.01,2013-07-16 19:36:00,
2013-07-16 12:41:00,76.8,51.3,29.86,NNW,345,4.0,12.0,41,0.00,,---,0.00,VWS V14.01,2013-07-16 19:41:00,
2013-07-16 12:45:00,76.6,51.8,29.86,NW,317,3.0,11.0,42,0.00,,---,0.00,VWS V14.01,2013-07-16 19:45:00,
2013-07-16 12:46:00,76.6,51.8,29.86,WNW,300,4.0,11.0,42,0.00,,---,0.00,VWS V14.01,2013-07-16 19:46:00,
2013-07-16 12:50:00,76.7,51.9,29.86,ESE,118,7.0,9.0,42,0.00,,---,0.00,VWS V14.01,2013-07-16 19:50:00,
2013-07-16 12:51:00,76.6,51.8,29.86,NW,313,7.0,9.0,42,0.00,,---,0.00,VWS V14.01,2013-07-16 19:51:00,
2013-07-16 12:55:00,77.0,52.2,29.86,NW,323,7.0,8.0,42,0.00,,---,0.00,VWS V14.01,2013-07-16 19:55:00,
2013-07-16 12:56:00,77.0,52.2,29.86,WNW,298,3.0,7.0,42,0.00,,---,0.00,VWS V14.01,2013-07-16 19:56:00,
2013-07-16 13:00:00,76.9,51.4,29.86,NW,311,8.0,11.0,41,0.00,,---,0.00,VWS V14.01,2013-07-16 20:00:00,
2013-07-16 13:01:00,77.0,51.5,29.86,NW,308,6.0,11.0,41,0.00,,---,0.00,VWS V14.01,2013-07-16 20:01:00,
2013-07-16 13:05:00,76.4,51.6,29.85,NNW,330,6.0,11.0,42,0.00,,---,0.00,VWS V14.01,2013-07-16 20:05:00,
2013-07-16 13:06:00,76.4,51.0,29.85,North,358,8.0,11.0,41,0.00,,---,0.00,VWS V14.01,2013-07-16 20:06:00,
2013-07-16 13:10:00,75.9,51.2,29.85,NW,309,6.0,11.0,42,0.00,,---,0.00,VWS V14.01,2013-07-16 20:10:00,
2013-07-16 13:11:00,76.0,50.6,29.85,North,352,5.0,11.0,41,0.00,,---,0.00,VWS V14.01,2013-07-16 20:11:00,
2013-07-16 13:15:00,76.0,51.3,29.85,NW,309,7.0,13.0,42,0.00,,---,0.00,VWS V14.01,2013-07-16 20:15:00,
2013-07-16 13:16:00,76.0,51.3,29.85,WNW,294,8.0,13.0,42,0.00,,---,0.00,VWS V14.01,2013-07-16 20:16:00,
2013-07-16 13:20:00,76.4,51.6,29.85,WNW,290,7.0,14.0,42,0.00,,---,0.00,VWS V14.01,2013-07-16 20:20:00,
2013-07-16 13:21:00,76.4,51.6,29.85,WNW,293,8.0,14.0,42,0.00,,---,0.00,VWS V14.01,2013-07-16 20:21:00,
2013-07-16 13:25:00,76.6,51.8,29.85,West,276,5.0,13.0,42,0.00,,---,0.00,VWS V14.01,2013-07-16 20:25:00,
2013-07-16 13:26:00,76.5,51.7,29.85,WNW,303,8.0,13.0,42,0.00,,---,0.00,VWS V14.01,2013-07-16 20:26:00,
2013-07-16 13:30:00,76.7,51.9,29.85,WNW,285,3.0,13.0,42,0.00,,---,0.00,VWS V14.01,2013-07-16 20:30:00,
2013-07-16 13:31:00,76.7,51.9,29.85,NNW,335,7.0,13.0,42,0.00,,---,0.00,VWS V14.01,2013-07-16 20:31:00,
2013-07-16 13:35:00,77.1,51.6,29.85,NNW,327,6.0,10.0,41,0.00,,---,0.00,VWS V14.01,2013-07-16 20:35:00,
2013-07-16 13:36:00,77.1,50.9,29.85,NW,323,4.0,10.0,40,0.00,,---,0.00,VWS V14.01,2013-07-16 20:36:00,
2013-07-16 13:40:00,77.6,52.1,29.84,East,98,1.0,9.0,41,0.00,,---,0.00,VWS V14.01,2013-07-16 20:40:00,
2013-07-16 13:41:00,77.5,52.0,29.84,ESE,103,5.0,9.0,41,0.00,,---,0.00,VWS V14.01,2013-07-16 20:41:00,
2013-07-16 13:45:00,78.4,52.1,29.84,North,358,3.0,8.0,40,0.00,,---,0.00,VWS V14.01,2013-07-16 20:45:00,
2013-07-16 13:46:00,78.3,52.7,29.84,NNW,344,4.0,8.0,41,0.00,,---,0.00,VWS V14.01,2013-07-16 20:46:00,
2013-07-16 13:50:00,80.1,53.6,29.84,WNW,301,2.0,6.0,40,0.00,,---,0.00,VWS V14.01,2013-07-16 20:50:00,
2013-07-16 13:51:00,79.9,53.5,29.84,NW,306,4.0,6.0,40,0.00,,---,0.00,VWS V14.01,2013-07-16 20:51:00,
2013-07-16 13:55:00,80.3,53.1,29.84,NW,325,3.0,9.0,39,0.00,,---,0.00,VWS V14.01,2013-07-16 20:55:00,
2013-07-16 13:56:00,80.3,53.1,29.84,NW,317,2.0,9.0,39,0.00,,---,0.00,VWS V14.01,2013-07-16 20:56:00,
2013-07-16 14:00:00,79.7,53.3,29.84,WNW,302,3.0,12.0,40,0.00,,---,0.00,VWS V14.01,2013-07-16 21:00:00,
2013-07-16 14:01:00,79.7,53.3,29.84,WNW,298,8.0,12.0,40,0.00,,---,0.00,VWS V14.01,2013-07-16 21:01:00,
2013-07-16 14:05:00,79.8,52.7,29.84,WNW,288,2.0,11.0,39,0.00,,---,0.00,VWS V14.01,2013-07-16 21:05:00,
2013-07-16 14:06:00,79.8,53.4,29.84,NE,46,2.0,11.0,40,0.00,,---,0.00,VWS V14.01,2013-07-16 21:06:00,
2013-07-16 14:10:00,80.3,53.8,29.83,NE,37,6.0,10.0,40,0.00,,---,0.00,VWS V14.01,2013-07-16 21:10:00,
2013-07-16 14:11:00,80.3,53.1,29.83,WNW,301,5.0,10.0,39,0.00,,---,0.00,VWS V14.01,2013-07-16 21:11:00,
2013-07-16 14:15:00,80.6,52.7,29.83,NW,310,3.0,12.0,38,0.00,,---,0.00,VWS V14.01,2013-07-16 21:15:00,
2013-07-16 14:16:00,80.6,52.7,29.83,NW,304,3.0,12.0,38,0.00,,---,0.00,VWS V14.01,2013-07-16 21:16:00,
2013-07-16 14:20:00,80.3,53.1,29.83,NNW,344,6.0,10.0,39,0.00,,---,0.00,VWS V14.01,2013-07-16 21:20:00,
2013-07-16 14:21:00,80.3,53.8,29.83,NW,320,2.0,8.0,40,0.00,,---,0.00,VWS V14.01,2013-07-16 21:21:00,
2013-07-16 14:25:00,80.0,52.8,29.82,NW,316,6.0,11.0,39,0.00,,---,0.00,VWS V14.01,2013-07-16 21:25:00,
2013-07-16 14:26:00,80.0,52.8,29.82,WNW,293,5.0,11.0,39,0.00,,---,0.00,VWS V14.01,2013-07-16 21:26:00,
2013-07-16 14:30:00,79.7,52.6,29.82,NW,309,7.0,12.0,39,0.00,,---,0.00,VWS V14.01,2013-07-16 21:30:00,
2013-07-16 14:31:00,79.8,52.7,29.82,WNW,295,6.0,12.0,39,0.00,,---,0.00,VWS V14.01,2013-07-16 21:31:00,
2013-07-16 14:35:00,80.1,53.6,29.83,West,277,5.0,8.0,40,0.00,,---,0.00,VWS V14.01,2013-07-16 21:35:00,
2013-07-16 14:36:00,80.0,53.5,29.83,SSE,158,1.0,8.0,40,0.00,,---,0.00,VWS V14.01,2013-07-16 21:36:00,
2013-07-16 14:40:00,80.0,52.8,29.83,NNW,335,3.0,15.0,39,0.00,,---,0.00,VWS V14.01,2013-07-16 21:40:00,
2013-07-16 14:41:00,80.0,53.5,29.83,NW,314,2.0,15.0,40,0.00,,---,0.00,VWS V14.01,2013-07-16 21:41:00,
2013-07-16 14:45:00,79.9,52.8,29.83,ENE,69,2.0,13.0,39,0.00,,---,0.00,VWS V14.01,2013-07-16 21:45:00,
2013-07-16 14:46:00,79.9,52.8,29.83,NE,44,7.0,13.0,39,0.00,,---,0.00,VWS V14.01,2013-07-16 21:46:00,
2013-07-16 14:50:00,79.8,52.7,29.83,NW,311,9.0,12.0,39,0.00,,---,0.00,VWS V14.01,2013-07-16 21:50:00,
2013-07-16 14:51:00,79.8,53.4,29.83,NW,325,3.0,12.0,40,0.00,,---,0.00,VWS V14.01,2013-07-16 21:51:00,
2013-07-16 14:55:00,79.8,53.4,29.83,NW,323,5.0,11.0,40,0.00,,---,0.00,VWS V14.01,2013-07-16 21:55:00,
2013-07-16 14:56:00,79.8,53.4,29.83,NNW,346,3.0,11.0,40,0.00,,---,0.00,VWS V14.01,2013-07-16 21:56:00,
2013-07-16 15:00:00,80.1,52.9,29.83,NNW,335,2.0,11.0,39,0.00,,---,0.00,VWS V14.01,2013-07-16 22:00:00,
2013-07-16 15:01:00,80.1,52.9,29.83,NNW,327,3.0,11.0,39,0.00,,---,0.00,VWS V14.01,2013-07-16 22:01:00,
2013-07-16 15:05:00,80.3,52.4,29.83,WNW,283,2.0,11.0,38,0.00,,---,0.00,VWS V14.01,2013-07-16 22:05:00,
2013-07-16 15:06:00,80.4,52.5,29.83,WNW,302,11.0,11.0,38,0.00,,---,0.00,VWS V14.01,2013-07-16 22:06:00,
2013-07-16 15:10:00,79.7,52.6,29.82,NNW,327,9.0,10.0,39,0.00,,---,0.00,VWS V14.01,2013-07-16 22:10:00,
2013-07-16 15:11:00,79.8,52.7,29.82,NNW,333,7.0,10.0,39,0.00,,---,0.00,VWS V14.01,2013-07-16 22:11:00,
2013-07-16 15:15:00,78.9,52.5,29.82,NW,311,3.0,10.0,40,0.00,,---,0.00,VWS V14.01,2013-07-16 22:15:00,
2013-07-16 15:16:00,79.0,52.6,29.82,WNW,290,4.0,10.0,40,0.00,,---,0.00,VWS V14.01,2013-07-16 22:16:00,
2013-07-16 15:20:00,78.6,52.3,29.82,NW,325,6.0,13.0,40,0.00,,---,0.00,VWS V14.01,2013-07-16 22:20:00,
2013-07-16 15:21:00,78.6,53.0,29.82,NNW,327,13.0,13.0,41,0.00,,---,0.00,VWS V14.01,2013-07-16 22:21:00,
2013-07-16 15:25:00,78.2,52.6,29.82,NW,305,4.0,10.0,41,0.00,,---,0.00,VWS V14.01,2013-07-16 22:25:00,
2013-07-16 15:26:00,78.3,52.7,29.82,NW,320,6.0,10.0,41,0.00,,---,0.00,VWS V14.01,2013-07-16 22:26:00,
2013-07-16 15:30:00,78.0,51.8,29.82,SE,126,3.0,16.0,40,0.00,,---,0.00,VWS V14.01,2013-07-16 22:30:00,
2013-07-16 15:31:00,78.1,51.8,29.82,NW,309,6.0,13.0,40,0.00,,---,0.00,VWS V14.01,2013-07-16 22:31:00,
2013-07-16 15:35:00,77.8,52.2,29.83,NW,306,1.0,12.0,41,0.00,,---,0.00,VWS V14.01,2013-07-16 22:35:00,
2013-07-16 15:36:00,77.9,52.3,29.83,NW,313,5.0,12.0,41,0.00,,---,0.00,VWS V14.01,2013-07-16 22:36:00,
2013-07-16 15:40:00,77.8,52.2,29.83,WNW,297,2.0,12.0,41,0.00,,---,0.00,VWS V14.01,2013-07-16 22:40:00,
2013-07-16 15:41:00,77.8,52.2,29.83,SW,219,4.0,12.0,41,0.00,,---,0.00,VWS V14.01,2013-07-16 22:41:00,
2013-07-16 15:45:00,77.8,52.9,29.83,NW,309,2.0,11.0,42,0.00,,---,0.00,VWS V14.01,2013-07-16 22:45:00,
2013-07-16 15:46:00,77.8,52.9,29.83,NNW,341,4.0,11.0,42,0.00,,---,0.00,VWS V14.01,2013-07-16 22:46:00,
2013-07-16 15:50:00,77.8,52.2,29.83,WNW,303,6.0,10.0,41,0.00,,---,0.00,VWS V14.01,2013-07-16 22:50:00,
2013-07-16 15:51:00,77.8,52.2,29.83,NNW,347,4.0,10.0,41,0.00,,---,0.00,VWS V14.01,2013-07-16 22:51:00,
2013-07-16 15:55:00,77.5,52.0,29.83,WNW,290,4.0,11.0,41,0.00,,---,0.00,VWS V14.01,2013-07-16 22:55:00,
2013-07-16 15:56:00,77.5,52.0,29.83,NW,314,5.0,11.0,41,0.00,,---,0.00,VWS V14.01,2013-07-16 22:56:00,
2013-07-16 16:00:00,77.4,51.9,29.84,ENE,63,5.0,10.0,41,0.00,,---,0.00,VWS V14.01,2013-07-16 23:00:00,
2013-07-16 16:01:00,77.4,51.9,29.84,WNW,293,2.0,10.0,41,0.00,,---,0.00,VWS V14.01,2013-07-16 23:01:00,
2013-07-16 16:05:00,77.5,51.3,29.84,NNW,335,5.0,9.0,40,0.00,,---,0.00,VWS V14.01,2013-07-16 23:05:00,
2013-07-16 16:06:00,77.5,51.3,29.84,NNW,328,4.0,9.0,40,0.00,,---,0.00,VWS V14.01,2013-07-16 23:06:00,
2013-07-16 16:10:00,77.6,51.4,29.85,NNE,13,2.0,10.0,40,0.00,,---,0.00,VWS V14.01,2013-07-16 23:10:00,
2013-07-16 16:11:00,77.6,51.4,29.85,WNW,282,5.0,10.0,40,0.00,,---,0.00,VWS V14.01,2013-07-16 23:11:00,
2013-07-16 16:15:00,77.6,50.7,29.85,NW,318,2.0,7.0,39,0.00,,---,0.00,VWS V14.01,2013-07-16 23:15:00,
2013-07-16 16:16:00,77.6,51.4,29.85,NNW,330,7.0,7.0,40,0.00,,---,0.00,VWS V14.01,2013-07-16 23:16:00,
2013-07-16 16:20:00,77.6,50.7,29.84,NW,314,2.0,9.0,39,0.00,,---,0.00,VWS V14.01,2013-07-16 23:20:00,
2013-07-16 16:21:00,77.6,50.7,29.84,North,353,5.0,9.0,39,0.00,,---,0.00,VWS V14.01,2013-07-16 23:21:00,
2013-07-16 16:25:00,77.7,50.8,29.85,WNW,298,2.0,10.0,39,0.00,,---,0.00,VWS V14.01,2013-07-16 23:25:00,
2013-07-16 16:26:00,77.6,50.7,29.85,West,281,1.0,7.0,39,0.00,,---,0.00,VWS V14.01,2013-07-16 23:26:00,
2013-07-16 16:30:00,77.9,51.0,29.84,North,356,4.0,6.0,39,0.00,,---,0.00,VWS V14.01,2013-07-16 23:30:00,
2013-07-16 16:31:00,77.9,51.0,29.84,NE,34,3.0,6.0,39,0.00,,---,0.00,VWS V14.01,2013-07-16 23:31:00,
2013-07-16 16:35:00,78.2,51.2,29.84,North,10,1.0,7.0,39,0.00,,---,0.00,VWS V14.01,2013-07-16 23:35:00,
2013-07-16 16:36:00,78.1,51.2,29.84,North,5,3.0,7.0,39,0.00,,---,0.00,VWS V14.01,2013-07-16 23:36:00,
2013-07-16 16:40:00,78.4,51.4,29.84,North,350,3.0,6.0,39,0.00,,---,0.00,VWS V14.01,2013-07-16 23:40:00,
2013-07-16 16:41:00,78.4,51.4,29.84,NNW,344,2.0,6.0,39,0.00,,---,0.00,VWS V14.01,2013-07-16 23:41:00,
2013-07-16 16:45:00,78.4,51.4,29.83,WNW,299,4.0,7.0,39,0.00,,---,0.00,VWS V14.01,2013-07-16 23:45:00,
2013-07-16 16:46:00,78.4,51.4,29.83,East,81,3.0,7.0,39,0.00,,---,0.00,VWS V14.01,2013-07-16 23:46:00,
2013-07-16 16:50:00,78.3,52.0,29.82,NNW,342,4.0,7.0,40,0.00,,---,0.00,VWS V14.01,2013-07-16 23:50:00,
2013-07-16 16:55:00,78.3,52.7,29.82,East,85,3.0,5.0,41,0.00,,---,0.00,VWS V14.01,2013-07-16 23:55:00,
2013-07-16 17:00:00,78.2,52.6,29.82,NNE,28,0.0,6.0,41,0.00,,---,0.00,VWS V14.01,2013-07-17 00:00:00,
2013-07-16 17:05:00,78.2,53.2,29.82,West,272,1.0,4.0,42,0.00,,---,0.00,VWS V14.01,2013-07-17 00:05:00,
2013-07-16 17:10:00,77.9,53.0,29.83,NW,320,1.0,3.0,42,0.00,,---,0.00,VWS V14.01,2013-07-17 00:10:00,
2013-07-16 17:15:00,77.8,52.9,29.83,North,4,0.0,4.0,42,0.00,,---,0.00,VWS V14.01,2013-07-17 00:15:00,
2013-07-16 17:20:00,77.6,52.7,29.83,WNW,293,3.0,6.0,42,0.00,,---,0.00,VWS V14.01,2013-07-17 00:20:00,
2013-07-16 17:25:00,77.5,53.3,29.82,ENE,69,1.0,3.0,43,0.00,,---,0.00,VWS V14.01,2013-07-17 00:25:00,
2013-07-16 17:30:00,77.6,53.4,29.81,North,11,2.0,5.0,43,0.00,,---,0.00,VWS V14.01,2013-07-17 00:30:00,
2013-07-16 17:35:00,77.4,53.2,29.80,WNW,300,1.0,7.0,43,0.00,,---,0.00,VWS V14.01,2013-07-17 00:35:00,
2013-07-16 17:40:00,77.2,53.6,29.80,ENE,62,5.0,5.0,44,0.00,,---,0.00,VWS V14.01,2013-07-17 00:40:00,
2013-07-16 17:45:00,77.0,54.1,29.81,ENE,60,1.0,2.0,45,0.00,,---,0.00,VWS V14.01,2013-07-17 00:45:00,
2013-07-16 17:50:00,77.0,54.7,29.81,North,350,1.0,2.0,46,0.00,,---,0.00,VWS V14.01,2013-07-17 00:50:00,
2013-07-16 17:55:00,76.9,54.0,29.81,West,279,2.0,3.0,45,0.00,,---,0.00,VWS V14.01,2013-07-17 00:55:00,
2013-07-16 18:00:00,76.9,54.0,29.81,NW,305,1.0,3.0,45,0.00,,---,0.00,VWS V14.01,2013-07-17 01:00:00,
2013-07-16 18:05:00,77.1,53.5,29.81,NW,304,1.0,1.0,44,0.00,,---,0.00,VWS V14.01,2013-07-17 01:05:00,
2013-07-16 18:10:00,76.9,53.3,29.82,NW,326,1.0,4.0,44,0.00,,---,0.00,VWS V14.01,2013-07-17 01:10:00,
2013-07-16 18:15:00,76.9,53.3,29.81,SE,141,1.0,1.0,44,0.00,,---,0.00,VWS V14.01,2013-07-17 01:15:00,
2013-07-16 18:20:00,77.0,53.4,29.82,NW,321,2.0,4.0,44,0.00,,---,0.00,VWS V14.01,2013-07-17 01:20:00,
2013-07-16 18:25:00,77.0,53.4,29.81,North,6,0.0,5.0,44,0.00,,---,0.00,VWS V14.01,2013-07-17 01:25:00,
2013-07-16 18:30:00,77.2,53.6,29.81,NW,325,2.0,5.0,44,0.00,,---,0.00,VWS V14.01,2013-07-17 01:30:00,
2013-07-16 18:35:00,77.8,53.5,29.81,NNW,332,3.0,6.0,43,0.00,,---,0.00,VWS V14.01,2013-07-17 01:35:00,
2013-07-16 18:40:00,78.7,54.3,29.80,North,353,1.0,7.0,43,0.00,,---,0.00,VWS V14.01,2013-07-17 01:40:00,
2013-07-16 18:45:00,79.8,54.0,29.79,NW,319,2.0,6.0,41,0.00,,---,0.00,VWS V14.01,2013-07-17 01:45:00,
2013-07-16 18:50:00,79.9,54.1,29.79,NNW,347,1.0,5.0,41,0.00,,---,0.00,VWS V14.01,2013-07-17 01:50:00,
2013-07-16 18:55:00,79.3,54.2,29.79,NNW,343,2.0,6.0,42,0.00,,---,0.00,VWS V14.01,2013-07-17 01:55:00,
2013-07-16 19:00:00,79.2,54.2,29.80,NW,315,1.0,4.0,42,0.00,,---,0.00,VWS V14.01,2013-07-17 02:00:00,
2013-07-16 19:05:00,79.4,54.3,29.80,NNW,331,1.0,6.0,42,0.00,,---,0.00,VWS V14.01,2013-07-17 02:05:00,
2013-07-16 19:10:00,79.5,53.8,29.80,NNW,330,4.0,6.0,41,0.00,,---,0.00,VWS V14.01,2013-07-17 02:10:00,
2013-07-16 19:15:00,79.5,54.4,29.80,West,272,0.0,5.0,42,0.00,,---,0.00,VWS V14.01,2013-07-17 02:15:00,
2013-07-16 19:20:00,79.2,54.2,29.80,NW,304,0.0,6.0,42,0.00,,---,0.00,VWS V14.01,2013-07-17 02:20:00,
2013-07-16 19:25:00,79.0,54.0,29.81,NW,317,3.0,3.0,42,0.00,,---,0.00,VWS V14.01,2013-07-17 02:25:00,
2013-07-16 19:30:00,78.2,53.2,29.81,North,1,0.0,7.0,42,0.00,,---,0.00,VWS V14.01,2013-07-17 02:30:00,
2013-07-16 19:35:00,77.7,53.5,29.81,NW,321,1.0,5.0,43,0.00,,---,0.00,VWS V14.01,2013-07-17 02:35:00,
2013-07-16 19:40:00,77.2,53.0,29.81,NNW,341,4.0,6.0,43,0.00,,---,0.00,VWS V14.01,2013-07-17 02:40:00,
2013-07-16 19:45:00,76.9,52.7,29.81,WNW,293,0.0,8.0,43,0.00,,---,0.00,VWS V14.01,2013-07-17 02:45:00,
2013-07-16 19:50:00,76.5,52.4,29.81,NW,309,3.0,9.0,43,0.00,,---,0.00,VWS V14.01,2013-07-17 02:50:00,
2013-07-16 19:55:00,76.2,52.7,29.81,NW,320,2.0,8.0,44,0.00,,---,0.00,VWS V14.01,2013-07-17 02:55:00,
2013-07-16 20:00:00,75.9,52.5,29.81,NW,323,4.0,5.0,44,0.00,,---,0.00,VWS V14.01,2013-07-17 03:00:00,
2013-07-16 20:05:00,75.8,52.4,29.81,North,6,4.0,6.0,44,0.00,,---,0.00,VWS V14.01,2013-07-17 03:05:00,
2013-07-16 20:10:00,75.8,51.7,29.81,ENE,60,0.0,5.0,43,0.00,,---,0.00,VWS V14.01,2013-07-17 03:10:00,
2013-07-16 20:15:00,75.7,51.6,29.81,North,7,1.0,5.0,43,0.00,,---,0.00,VWS V14.01,2013-07-17 03:15:00,
2013-07-16 20:20:00,75.7,51.6,29.82,NW,320,0.0,5.0,43,0.00,,---,0.00,VWS V14.01,2013-07-17 03:20:00,
2013-07-16 20:25:00,75.6,51.5,29.82,NE,45,1.0,3.0,43,0.00,,---,0.00,VWS V14.01,2013-07-17 03:25:00,
2013-07-16 20:30:00,75.6,52.2,29.82,NE,41,0.0,1.0,44,0.00,,---,0.00,VWS V14.01,2013-07-17 03:30:00,
2013-07-16 20:35:00,75.5,52.1,29.82,NW,306,2.0,3.0,44,0.00,,---,0.00,VWS V14.01,2013-07-17 03:35:00,
2013-07-16 20:40:00,75.4,52.0,29.82,NNW,333,0.0,4.0,44,0.00,,---,0.00,VWS V14.01,2013-07-17 03:40:00,
2013-07-16 20:45:00,75.4,52.0,29.82,North,2,0.0,2.0,44,0.00,,---,0.00,VWS V14.01,2013-07-17 03:45:00,
2013-07-16 20:50:00,75.2,52.4,29.82,NNW,329,0.0,3.0,45,0.00,,---,0.00,VWS V14.01,2013-07-17 03:50:00,
2013-07-16 20:55:00,75.0,52.2,29.82,NNW,335,0.0,2.0,45,0.00,,---,0.00,VWS V14.01,2013-07-17 03:55:00,
2013-07-16 21:00:00,74.9,52.2,29.83,NE,39,0.0,1.0,45,0.00,,---,0.00,VWS V14.01,2013-07-17 04:00:00,
2013-07-16 21:01:00,74.8,52.1,29.83,NE,45,1.0,1.0,45,0.00,,---,0.00,VWS V14.01,2013-07-17 04:01:00,
2013-07-16 21:05:00,74.8,52.1,29.83,ENE,72,2.0,4.0,45,0.00,,---,0.00,VWS V14.01,2013-07-17 04:05:00,
2013-07-16 21:06:00,74.8,52.1,29.83,ENE,71,3.0,4.0,45,0.00,,---,0.00,VWS V14.01,2013-07-17 04:06:00,
2013-07-16 21:10:00,74.8,51.5,29.83,NW,326,2.0,5.0,44,0.00,,---,0.00,VWS V14.01,2013-07-17 04:10:00,
2013-07-16 21:11:00,74.8,51.5,29.83,East,90,3.0,5.0,44,0.00,,---,0.00,VWS V14.01,2013-07-17 04:11:00,
2013-07-16 21:15:00,74.9,50.3,29.83,North,1,1.0,5.0,42,0.00,,---,0.00,VWS V14.01,2013-07-17 04:15:00,
2013-07-16 21:16:00,74.9,50.9,29.83,NNW,338,3.0,5.0,43,0.00,,---,0.00,VWS V14.01,2013-07-17 04:16:00,
2013-07-16 21:20:00,75.0,50.4,29.83,ENE,68,2.0,3.0,42,0.00,,---,0.00,VWS V14.01,2013-07-17 04:20:00,
2013-07-16 21:21:00,75.1,50.5,29.83,ENE,70,2.0,3.0,42,0.00,,---,0.00,VWS V14.01,2013-07-17 04:21:00,
2013-07-16 21:25:00,75.2,50.6,29.83,East,96,1.0,4.0,42,0.00,,---,0.00,VWS V14.01,2013-07-17 04:25:00,
2013-07-16 21:26:00,75.2,50.6,29.83,ENE,60,1.0,4.0,42,0.00,,---,0.00,VWS V14.01,2013-07-17 04:26:00,
2013-07-16 21:30:00,75.2,50.6,29.84,NE,54,1.0,2.0,42,0.00,,---,0.00,VWS V14.01,2013-07-17 04:30:00,
2013-07-16 21:31:00,75.2,50.6,29.84,NE,54,1.0,2.0,42,0.00,,---,0.00,VWS V14.01,2013-07-17 04:31:00,
2013-07-16 21:35:00,75.0,51.0,29.84,East,88,0.0,1.0,43,0.00,,---,0.00,VWS V14.01,2013-07-17 04:35:00,
2013-07-16 21:36:00,75.1,51.1,29.84,East,88,0.0,1.0,43,0.00,,---,0.00,VWS V14.01,2013-07-17 04:36:00,
2013-07-16 21:40:00,74.7,50.7,29.85,East,88,0.0,1.0,43,0.00,,---,0.00,VWS V14.01,2013-07-17 04:40:00,
2013-07-16 21:41:00,74.8,50.8,29.85,East,88,0.0,1.0,43,0.00,,---,0.00,VWS V14.01,2013-07-17 04:41:00,
2013-07-16 21:45:00,74.3,51.0,29.84,East,88,0.0,1.0,44,0.00,,---,0.00,VWS V14.01,2013-07-17 04:45:00,
2013-07-16 21:46:00,74.3,50.4,29.84,East,88,1.0,1.0,43,0.00,,---,0.00,VWS V14.01,2013-07-17 04:46:00,
2013-07-16 21:50:00,74.0,50.7,29.84,East,88,0.0,0.0,44,0.00,,---,0.00,VWS V14.01,2013-07-17 04:50:00,
2013-07-16 21:51:00,74.1,50.8,29.84,East,88,0.0,0.0,44,0.00,,---,0.00,VWS V14.01,2013-07-17 04:51:00,
2013-07-16 21:55:00,73.9,51.8,29.85,East,88,0.0,0.0,46,0.00,,---,0.00,VWS V14.01,2013-07-17 04:55:00,
2013-07-16 21:59:00,73.6,51.0,29.85,East,88,0.0,0.0,45,0.00,,---,0.00,VWS V14.01,2013-07-17 04:59:00,
2013-07-16 22:00:00,73.5,50.9,29.85,East,88,0.0,0.0,45,0.00,,---,0.00,VWS V14.01,2013-07-17 05:00:00,
2013-07-16 22:04:00,73.2,51.8,29.85,East,88,0.0,0.0,47,0.00,,---,0.00,VWS V14.01,2013-07-17 05:04:00,
2013-07-16 22:05:00,73.1,51.7,29.85,East,88,0.0,0.0,47,0.00,,---,0.00,VWS V14.01,2013-07-17 05:05:00,
2013-07-16 22:09:00,73.0,51.6,29.85,East,88,0.0,0.0,47,0.00,,---,0.00,VWS V14.01,2013-07-17 05:09:00,
2013-07-16 22:10:00,72.9,52.1,29.86,East,88,0.0,0.0,48,0.00,,---,0.00,VWS V14.01,2013-07-17 05:10:00,
2013-07-16 22:14:00,72.7,53.0,29.86,East,99,1.0,1.0,50,0.00,,---,0.00,VWS V14.01,2013-07-17 05:14:00,
2013-07-16 22:15:00,72.4,52.7,29.86,SSE,147,1.0,1.0,50,0.00,,---,0.00,VWS V14.01,2013-07-17 05:15:00,
2013-07-16 22:19:00,72.2,53.1,29.86,SSE,167,0.0,2.0,51,0.00,,---,0.00,VWS V14.01,2013-07-17 05:19:00,
2013-07-16 22:20:00,71.9,53.3,29.86,SSE,167,0.0,2.0,52,0.00,,---,0.00,VWS V14.01,2013-07-17 05:20:00,
2013-07-16 22:24:00,71.8,52.7,29.86,SSE,167,0.0,0.0,51,0.00,,---,0.00,VWS V14.01,2013-07-17 05:24:00,
2013-07-16 22:25:00,71.6,52.5,29.86,SSE,167,0.0,0.0,51,0.00,,---,0.00,VWS V14.01,2013-07-17 05:25:00,
2013-07-16 22:29:00,71.5,53.0,29.86,SSE,167,0.0,0.0,52,0.00,,---,0.00,VWS V14.01,2013-07-17 05:29:00,
2013-07-16 22:30:00,71.3,52.8,29.86,SSE,167,0.0,0.0,52,0.00,,---,0.00,VWS V14.01,2013-07-17 05:30:00,
2013-07-16 22:34:00,71.2,53.2,29.86,SSW,208,1.0,1.0,53,0.00,,---,0.00,VWS V14.01,2013-07-17 05:34:00,
2013-07-16 22:35:00,71.1,52.6,29.86,SW,230,0.0,2.0,52,0.00,,---,0.00,VWS V14.01,2013-07-17 05:35:00,
2013-07-16 22:39:00,71.0,53.0,29.87,ESE,108,1.0,2.0,53,0.00,,---,0.00,VWS V14.01,2013-07-17 05:39:00,
2013-07-16 22:40:00,71.0,53.0,29.87,East,101,0.0,2.0,53,0.00,,---,0.00,VWS V14.01,2013-07-17 05:40:00,
2013-07-16 22:44:00,71.0,52.5,29.87,ESE,102,0.0,1.0,52,0.00,,---,0.00,VWS V14.01,2013-07-17 05:44:00,
2013-07-16 22:45:00,71.1,52.1,29.87,ESE,102,0.0,1.0,51,0.00,,---,0.00,VWS V14.01,2013-07-17 05:45:00,
2013-07-16 22:49:00,71.1,52.1,29.86,ESE,102,0.0,0.0,51,0.00,,---,0.00,VWS V14.01,2013-07-17 05:49:00,
2013-07-16 22:50:00,71.2,51.6,29.86,ESE,102,0.0,1.0,50,0.00,,---,0.00,VWS V14.01,2013-07-17 05:50:00,
2013-07-16 22:54:00,71.3,53.3,29.86,ESE,102,1.0,1.0,53,0.00,,---,0.00,VWS V14.01,2013-07-17 05:54:00,
2013-07-16 22:55:00,71.3,53.8,29.86,ESE,102,0.0,1.0,54,0.00,,---,0.00,VWS V14.01,2013-07-17 05:55:00,
2013-07-16 22:59:00,71.2,52.7,29.86,NNW,340,0.0,1.0,52,0.00,,---,0.00,VWS V14.01,2013-07-17 05:59:00,
2013-07-16 23:00:00,71.1,53.1,29.86,NNW,340,0.0,1.0,53,0.00,,---,0.00,VWS V14.01,2013-07-17 06:00:00,
2013-07-16 23:04:00,70.9,54.4,29.86,NNW,340,0.0,1.0,56,0.00,,---,0.00,VWS V14.01,2013-07-17 06:04:00,
2013-07-16 23:05:00,70.6,54.2,29.86,WNW,294,0.0,1.0,56,0.00,,---,0.00,VWS V14.01,2013-07-17 06:05:00,
2013-07-16 23:09:00,70.6,53.2,29.85,NW,323,1.0,4.0,54,0.00,,---,0.00,VWS V14.01,2013-07-17 06:09:00,
2013-07-16 23:10:00,70.6,52.7,29.85,NNW,338,1.0,4.0,53,0.00,,---,0.00,VWS V14.01,2013-07-17 06:10:00,
2013-07-16 23:14:00,70.7,51.7,29.85,NNW,335,0.0,2.0,51,0.00,,---,0.00,VWS V14.01,2013-07-17 06:14:00,
2013-07-16 23:15:00,70.8,53.3,29.86,East,89,2.0,2.0,54,0.00,,---,0.00,VWS V14.01,2013-07-17 06:15:00,
2013-07-16 23:19:00,70.6,52.1,29.85,East,87,1.0,2.0,52,0.00,,---,0.00,VWS V14.01,2013-07-17 06:19:00,
2013-07-16 23:20:00,70.5,54.5,29.85,NNE,21,0.0,2.0,57,0.00,,---,0.00,VWS V14.01,2013-07-17 06:20:00,
2013-07-16 23:24:00,70.3,56.2,29.86,East,89,0.0,1.0,61,0.00,,---,0.00,VWS V14.01,2013-07-17 06:24:00,
2013-07-16 23:25:00,69.9,55.8,29.86,East,98,1.0,2.0,61,0.00,,---,0.00,VWS V14.01,2013-07-17 06:25:00,
2013-07-16 23:29:00,69.7,57.0,29.87,East,98,3.0,3.0,64,0.00,,---,0.00,VWS V14.01,2013-07-17 06:29:00,
2013-07-16 23:30:00,69.5,56.8,29.87,ESE,103,2.0,4.0,64,0.00,,---,0.00,VWS V14.01,2013-07-17 06:30:00,
2013-07-16 23:34:00,69.3,56.2,29.88,ESE,104,2.0,4.0,63,0.00,,---,0.00,VWS V14.01,2013-07-17 06:34:00,
2013-07-16 23:35:00,69.4,54.5,29.87,East,101,2.0,4.0,59,0.00,,---,0.00,VWS V14.01,2013-07-17 06:35:00,
2013-07-16 23:39:00,69.5,55.0,29.87,ESE,102,1.0,2.0,60,0.00,,---,0.00,VWS V14.01,2013-07-17 06:39:00,
2013-07-16 23:40:00,69.5,54.6,29.87,East,99,1.0,2.0,59,0.00,,---,0.00,VWS V14.01,2013-07-17 06:40:00,
2013-07-16 23:44:00,69.6,54.2,29.86,East,99,0.0,1.0,58,0.00,,---,0.00,VWS V14.01,2013-07-17 06:44:00,
2013-07-16 23:45:00,69.7,55.2,29.86,East,99,1.0,1.0,60,0.00,,---,0.00,VWS V14.01,2013-07-17 06:45:00,
2013-07-16 23:49:00,69.6,54.7,29.86,East,99,2.0,2.0,59,0.00,,---,0.00,VWS V14.01,2013-07-17 06:49:00,
2013-07-16 23:50:00,69.5,55.0,29.86,East,96,3.0,3.0,60,0.00,,---,0.00,VWS V14.01,2013-07-17 06:50:00,
2013-07-16 23:54:00,69.2,55.6,29.87,East,98,2.0,3.0,62,0.00,,---,0.00,VWS V14.01,2013-07-17 06:54:00,
2013-07-16 23:55:00,69.3,53.9,29.87,East,94,2.0,3.0,58,0.00,,---,0.00,VWS V14.01,2013-07-17 06:55:00,
2013-07-16 23:59:00,69.5,53.6,29.87,East,84,3.0,3.0,57,0.00,,---,0.00,VWS V14.01,2013-07-17 06:59:00,